Location: Peebles
(55.6412°N, 3.1714°W)
Time: 21:33:42
(UTC+00:00)

FENGYUN 1C DEB - Pass Details

Date: 11 February 2023
Orbit: 707 x 862 km, 98.5° (Epoch: 07 November)

Event Time Altitude Azimuth Distance (km) Brightness Sun altitude
Rises 18:33:10 0° 141° (SE) 3,404 ? -12.3°
Reaches altitude 10° 18:35:36 10° 136° (SE) 2,475 ? -12.7°
Maximum altitude 18:40:52 48° 64° (ENE) 1,101 ? -13.4°
Drops below altitude 10° 18:46:07 10° 352° (N) 2,464 ? -14.1°
Sets 18:48:32 0° 347° (NNW) 3,388 ? -14.5°
